Regional Weather Roundup
Issued by NWS Portland, ME

Home | Current Version | Previous Version | Text Only | Print | Product List | Glossary On
Versions: 1 2 3 4 5 6 7 8 9 10 11 12 13 14 15 16 17 18 19 20 21 22 23 24 25 26 27 28 29 30 31 32 33 34 35 36 37 38 39 40 41 42 43 44 45 46 47 48 49 50
000
ASUS41 KGYX 230705
RWRGYX
WEATHER ROUNDUP FOR MAINE AND NEW HAMPSHIRE
NATIONAL WEATHER SERVICE GRAY ME
300 AM EDT WED APR 23 2014

MEZ002-005-006-010-012-015-018-020-021-024-026-027-029-230800-
MAINE

CITY           SKY/WX    TMP DP  RH WIND       PRES   REMARKS
PORTLAND       CLOUDY    47  46  97 CALM      29.40F FOG
SANFORD        CLOUDY    50 N/A N/A SW8       29.40F
BAR HARBOR     CLOUDY    46  45  93 S7        29.44F
WISCASSET      CLOUDY    47  45  93 CALM      29.42F
ROCKLAND       CLOUDY    45  45 100 SE7       29.42F
FRYEBURG       FOG       44  44 100 W3        29.42S VSB 1/2
LEWISTONAUBURN CLOUDY    46  45  93 CALM      29.41S
AUGUSTA        LGT RAIN  45  44  97 CALM      29.41F
WATERVILLE     CLOUDY    46  45  93 W3        29.37F
BANGOR         LGT RAIN  47  45  93 S8        29.44S FOG
GREENVILLE       N/A     42  41  96 VRB3      29.38S
MILLINOCKET    RAIN      46  44  93 CALM      29.43F FOG
HOULTON        LGT RAIN  46  44  93 SE6       29.43F
PRESQUE ISLE   CLOUDY    45  39  81 SE7       29.44F
FRENCHVILLE    RAIN      37  37 100 E12       29.43F FOG
CARIBOU        RAIN      41  40  96 E7        29.43F FOG
$$

NHZ002-005-008-009-011-012-014-230800-
NEW HAMPSHIRE

CITY           SKY/WX    TMP DP  RH WIND       PRES   REMARKS
PORTSMOUTH     PTCLDY    52  52 100 SW7       29.41S
ROCHESTER      MOCLDY    52  50  93 CALM      29.41S FOG
NASHUA         MOCLDY    51  51 100 CALM      29.45S FOG
MANCHESTER     PTCLDY    53  51  93 CALM      29.43S FOG
CONCORD        FOG       50  49  96 CALM      29.43S VSB 1
LACONIA        MOCLDY    54  46  76 SW5       29.43S
PLYMOUTH         N/A     48  47  97 CALM      29.43S FOG
BERLIN         CLOUDY    48  45  89 CALM      29.41F
WHITEFIELD     FOG       48  46  93 CALM      29.42F VSB 1/2
JAFFREY        MOCLDY    48  47  96 SE5       29.46S FOG
LEBANON        MOCLDY    47  43  86 CALM      29.43F
MT WASHINGTON  FOG       32  32 100 W36         N/A  VSB 0   WCI  16
$$

VTZ005-007-008-230800-
VERMONT

CITY           SKY/WX    TMP DP  RH WIND       PRES   REMARKS
ST JOHNSBURY     N/A     48  46  93 MISG      29.42S
MONTPELIER     CLOUDY    47  45  93 NW8       29.48S
BURLINGTON     CLOUDY    46  43  89 N9        29.50R
$$

MAZ007-012-024-CTZ003-RIZ002-NYZ038-NYZ072-230800-
SOUTHERN NEW ENGLAND AND NY

CITY           SKY/WX    TMP DP  RH WIND       PRES   REMARKS
BOSTON         CLOUDY    54  50  86 SW9       29.45S
WORCESTER      CLOUDY    51  49  92 W10       29.46F
NANTUCKET      MOCLDY    47  45  93 SW7       29.47F
PROVIDENCE     FOG       47  46  97 S3        29.47F VSB 1/2
HARTFORD       CLOUDY    53  44  71 NW16      29.48F
ALBANY         MOCLDY    47  38  71 W10G23    29.56S
NEW YORK CITY  MOCLDY    58  45  62 NW13      29.49S
$$

ANZ081-ANZ082-ANZ150-NHZ014-MEZ023>029-230800-
COASTAL MARINE OBSERVATIONS

STATION/POSITION TIME  TEMP    WIND        PRES    WAVE
                       AIR SEA DIR/SP/G            HT/PER
                 (UTC) (F)     (DEG/KT/KT) (MB)    (FT/S)
MOUNT DESERT ROC 0700   45                   N/A
MATINICUS ROCK   0600   44     210/ 17/ 18  996.9F
PORTLAND WX BUOY 0700   46 42  210/  8/ 10  995.4F   4/ 8
WELLS            0700   48 41  260/  2/  2  994.8F
ISLE OF SHOALS   0600   53     220/ 14/ 14  995.5F
JEFFREYS LEDGE   0600      43                N/A     4/ 9
CASHES LEDGE BUO 0700   45 42  180/ 12/ 14  996.2F   4/ 5
$$

.............KEY..............
   WCI - WIND CHILL
   TC  - TEMPERATURE IN CELSIUS
   VSB - VISIBILITY IN MILES
   HX  - HEAT INDEX
   FAIR- INDICATES FEW OR NO CLOUDS BELOW 12,000 FT, WITH NO
         SIGNIFICANT WEATHER AND/OR OBSTRUCTIONS TO VISIBILITY.





USA.gov is the U.S. government's official web portal to all federal, state and local government web resources and services.